• In Uzbekistan
  • List of Countries
  • For 7 days
  • Water Temperature
  • Satellite Maps
  • Weather Map
  • Weather Widgets
  • user-avatar
    Login

    Hourly Weather Dromore

    Today, 17 October, Tuesday

    Time Temperature Precipitation Wind Pressure Humidity
    00:00 +10°C° 0.1 mm 14 mps 739 mmHg 79%
    01:00 +9°C° 0.1 mm 14 mps 741 mmHg 79%
    02:00 +9°C° 0.1 mm 13 mps 742 mmHg 79%
    03:00 +9°C° 0.1 mm 13 mps 743 mmHg 79%
    04:00 +9°C° 0 mm 12 mps 744 mmHg 80%
    05:00 +9°C° 0 mm 11 mps 745 mmHg 80%
    06:00 +8°C° 0 mm 11 mps 746 mmHg 81%
    07:00 +8°C° 0 mm 10 mps 747 mmHg 81%
    08:00 +8°C° 0 mm 10 mps 748 mmHg 81%
    09:00 +8°C° 0 mm 9 mps 749 mmHg 81%
    10:00 +10°C° 0 mm 9 mps 749 mmHg 80%
    11:00 +10°C° 0 mm 8 mps 750 mmHg 79%
    12:00 +10°C° 0 mm 8 mps 750 mmHg 77%
    13:00 +11°C° 0 mm 7 mps 751 mmHg 77%
    14:00 +11°C° 0 mm 6 mps 751 mmHg 78%
    15:00 +11°C° 0 mm 6 mps 751 mmHg 78%
    16:00 +10°C° 0 mm 5 mps 751 mmHg 82%
    17:00 +10°C° 0 mm 4 mps 751 mmHg 85%
    18:00 +9°C° 0 mm 3 mps 751 mmHg 89%
    19:00 +8°C° 0 mm 3 mps 751 mmHg 90%
    20:00 +8°C° 0 mm 2 mps 751 mmHg 92%
    21:00 +7°C° 0 mm 2 mps 751 mmHg 93%
    22:00 +7°C° 0 mm 2 mps 751 mmHg 93%
    23:00 +8°C° 0 mm 1 mps 751 mmHg 93%

    Tomorrow, 18 October, Wednesday

    Time Temperature Precipitation Wind Pressure Humidity
    00:00 +7°C° 0 mm 1 mps 751 mmHg 93%
    01:00 +7°C° 0 mm 1 mps 750 mmHg 93%
    02:00 +7°C° 0 mm 1 mps 750 mmHg 93%
    03:00 +6°C° 0 mm 1 mps 750 mmHg 93%
    04:00 +6°C° 0 mm 1 mps 750 mmHg 92%
    05:00 +6°C° 0 mm 1 mps 749 mmHg 92%
    06:00 +5°C° 0 mm 2 mps 749 mmHg 92%
    07:00 +7°C° 0 mm 2 mps 749 mmHg 91%
    08:00 +8°C° 0 mm 3 mps 749 mmHg 89%
    09:00 +8°C° 0 mm 4 mps 749 mmHg 87%
    10:00 +10°C° 0 mm 4 mps 748 mmHg 83%
    11:00 +10°C° 0 mm 5 mps 748 mmHg 79%
    12:00 +11°C° 0 mm 6 mps 747 mmHg 75%
    13:00 +11°C° 0 mm 6 mps 746 mmHg 76%
    14:00 +10°C° 0 mm 6 mps 746 mmHg 77%
    15:00 +10°C° 0 mm 6 mps 745 mmHg 78%
    16:00 +10°C° 0 mm 6 mps 744 mmHg 82%
    17:00 +10°C° 0 mm 6 mps 744 mmHg 85%
    18:00 +10°C° 0 mm 6 mps 743 mmHg 88%
    19:00 +10°C° 0.4 mm 7 mps 743 mmHg 90%
    20:00 +11°C° 0.4 mm 7 mps 742 mmHg 93%
    21:00 +11°C° 0.4 mm 7 mps 742 mmHg 95%
    22:00 +11°C° 0.2 mm 7 mps 741 mmHg 95%
    23:00 +11°C° 0.2 mm 7 mps 741 mmHg 94%

    Day after tomorrow, 19 October, Thursday

    Time Temperature Precipitation Wind Pressure Humidity
    00:00 +11°C° 0.2 mm 7 mps 740 mmHg 94%
    01:00 +11°C° 0.3 mm 6 mps 740 mmHg 94%
    02:00 +10°C° 0.3 mm 6 mps 740 mmHg 94%
    03:00 +10°C° 0.3 mm 6 mps 739 mmHg 94%
    04:00 +10°C° 0.9 mm 6 mps 739 mmHg 94%
    05:00 +10°C° 0.9 mm 6 mps 739 mmHg 94%
    06:00 +10°C° 0.9 mm 7 mps 738 mmHg 94%
    07:00 +10°C° 0.6 mm 6 mps 738 mmHg 94%
    08:00 +10°C° 0.6 mm 6 mps 738 mmHg 94%
    09:00 +10°C° 0.6 mm 5 mps 738 mmHg 94%
    10:00 +10°C° 0.7 mm 5 mps 738 mmHg 92%
    11:00 +11°C° 0.7 mm 4 mps 738 mmHg 91%
    12:00 +11°C° 0.7 mm 3 mps 738 mmHg 90%
    13:00 +11°C° 0.4 mm 3 mps 737 mmHg 90%
    14:00 +11°C° 0.4 mm 3 mps 737 mmHg 90%
    15:00 +11°C° 0.4 mm 3 mps 737 mmHg 90%
    16:00 +10°C° 0.7 mm 4 mps 737 mmHg 91%
    17:00 +9°C° 0.7 mm 5 mps 737 mmHg 92%
    18:00 +8°C° 0.7 mm 6 mps 737 mmHg 93%
    19:00 +8°C° 0.3 mm 6 mps 737 mmHg 92%
    20:00 +8°C° 0.3 mm 7 mps 738 mmHg 91%
    21:00 +6°C° 0.3 mm 8 mps 738 mmHg 90%
    22:00 +6°C° 0.1 mm 8 mps 739 mmHg 89%
    23:00 +5°C° 0.1 mm 8 mps 739 mmHg 88%

    20 October, Friday

    Time Temperature Precipitation Wind Pressure Humidity
    00:00 +5°C° 0.1 mm 8 mps 740 mmHg 88%
    01:00 +4°C° 0 mm 7 mps 741 mmHg 88%
    02:00 +4°C° 0 mm 7 mps 741 mmHg 87%
    03:00 +4°C° 0 mm 6 mps 742 mmHg 87%
    04:00 +3°C° 0 mm 6 mps 743 mmHg 88%
    05:00 +3°C° 0 mm 5 mps 743 mmHg 88%
    06:00 +3°C° 0 mm 4 mps 743 mmHg 89%
    07:00 +4°C° 0 mm 4 mps 744 mmHg 88%
    08:00 +5°C° 0 mm 3 mps 744 mmHg 86%
    09:00 +6°C° 0 mm 2 mps 745 mmHg 85%
    10:00 +7°C° 0 mm 2 mps 744 mmHg 80%
    11:00 +9°C° 0 mm 2 mps 744 mmHg 75%
    12:00 +11°C° 0 mm 1 mps 744 mmHg 70%
    13:00 +9°C° 0 mm 2 mps 743 mmHg 71%
    14:00 +8°C° 0 mm 4 mps 742 mmHg 72%
    15:00 +8°C° 0 mm 5 mps 742 mmHg 73%
    16:00 +8°C° 0.1 mm 6 mps 740 mmHg 74%
    17:00 +7°C° 0.1 mm 8 mps 738 mmHg 76%
    18:00 +6°C° 0.1 mm 9 mps 736 mmHg 77%
    19:00 +7°C° 1.1 mm 10 mps 735 mmHg 82%
    20:00 +7°C° 1.1 mm 11 mps 734 mmHg 86%
    21:00 +8°C° 1.1 mm 12 mps 732 mmHg 91%
    22:00 +8°C° 0.8 mm 11 mps 731 mmHg 90%
    23:00 +8°C° 0.8 mm 9 mps 730 mmHg 89%

    21 October, Saturday

    Time Temperature Precipitation Wind Pressure Humidity
    00:00 +9°C° 0.8 mm 8 mps 729 mmHg 88%
    01:00 +8°C° 0.3 mm 10 mps 727 mmHg 87%
    02:00 +8°C° 0.3 mm 12 mps 725 mmHg 86%
    03:00 +8°C° 0.3 mm 13 mps 723 mmHg 85%
    04:00 +8°C° 1.1 mm 13 mps 722 mmHg 86%
    05:00 +8°C° 1.1 mm 12 mps 720 mmHg 88%
    06:00 +9°C° 1.1 mm 11 mps 719 mmHg 89%
    07:00 +9°C° 0.3 mm 10 mps 718 mmHg 90%
    08:00 +9°C° 0.3 mm 8 mps 718 mmHg 91%
    09:00 +9°C° 0.3 mm 7 mps 718 mmHg 92%
    10:00 +9°C° 0.3 mm 8 mps 719 mmHg 92%
    11:00 +8°C° 0.3 mm 9 mps 720 mmHg 91%
    12:00 +8°C° 0.3 mm 11 mps 721 mmHg 91%
    13:00 +8°C° 1.1 mm 11 mps 722 mmHg 90%
    14:00 +8°C° 1.1 mm 12 mps 724 mmHg 89%
    15:00 +8°C° 1.1 mm 13 mps 725 mmHg 88%
    16:00 +8°C° 0.4 mm 13 mps 727 mmHg 88%
    17:00 +7°C° 0.4 mm 12 mps 729 mmHg 87%
    18:00 +7°C° 0.4 mm 12 mps 730 mmHg 87%
    19:00 +7°C° 0.3 mm 12 mps 732 mmHg 86%
    20:00 +7°C° 0.3 mm 12 mps 733 mmHg 85%
    21:00 +5°C° 0.3 mm 13 mps 734 mmHg 84%
    22:00 +5°C° 0.2 mm 13 mps 735 mmHg 83%
    23:00 +5°C° 0.2 mm 13 mps 735 mmHg 83%

    22 October, Sunday

    Time Temperature Precipitation Wind Pressure Humidity
    00:00 +4°C° 0.2 mm 13 mps 736 mmHg 82%
    01:00 +5°C° 0.5 mm 13 mps 736 mmHg 83%
    02:00 +5°C° 0.5 mm 14 mps 736 mmHg 84%
    03:00 +5°C° 0.5 mm 14 mps 736 mmHg 86%
    04:00 +5°C° 1.1 mm 14 mps 736 mmHg 86%
    05:00 +5°C° 1.1 mm 14 mps 737 mmHg 86%
    06:00 +5°C° 1.1 mm 14 mps 738 mmHg 87%
    07:00 +5°C° 0.3 mm 13 mps 739 mmHg 87%
    08:00 +7°C° 0.3 mm 13 mps 740 mmHg 86%
    09:00 +7°C° 0.3 mm 12 mps 741 mmHg 86%
    10:00 +7°C° 0.1 mm 12 mps 742 mmHg 83%
    11:00 +7°C° 0.1 mm 12 mps 743 mmHg 80%
    12:00 +8°C° 0.1 mm 11 mps 744 mmHg 77%
    13:00 +8°C° 0 mm 10 mps 744 mmHg 77%
    14:00 +8°C° 0 mm 9 mps 745 mmHg 76%
    15:00 +9°C° 0 mm 8 mps 745 mmHg 75%
    16:00 +9°C° 0 mm 7 mps 745 mmHg 80%
    17:00 +8°C° 0 mm 6 mps 746 mmHg 84%
    18:00 +8°C° 0 mm 5 mps 746 mmHg 89%
    19:00 +8°C° 0.1 mm 5 mps 745 mmHg 90%
    20:00 +8°C° 0.1 mm 5 mps 745 mmHg 91%
    21:00 +9°C° 0.1 mm 6 mps 745 mmHg 92%
    22:00 +9°C° 0.5 mm 6 mps 744 mmHg 93%
    23:00 +10°C° 0.5 mm 6 mps 743 mmHg 94%
    Show more